Location: Central Falls
(41.8900°N, 71.3929°W)
Time: 11:12:46
(UTC+00:00)

A-11 Canister half - Pass Details

Date: 13 December 2023
Orbit: 1512 x 1687 km, 47.2° (Epoch: 20 February)

Event Time Altitude Azimuth Distance (km) Brightness Sun altitude
Rises 04:47:03 0° 265° (W) 4,708 - -71.2°
Reaches altitude 10° 04:50:07 10° 268° (W) 3,746 - -71.1°
Maximum altitude 04:59:36 67° 351° (N) 1,714 - -70.8°
Drops below altitude 10° 05:09:29 10° 74° (ENE) 3,888 - -70.2°
Sets 05:12:44 0° 77° (ENE) 4,895 - -70.0°
